User: anonymous   Login
Location: Newark
(42.8481°N, 0.4872°E)
Time: 19:43:25
(UTC+00:00)
Language:

Courier 1B - Orbit

View from above orbital plane
View from above orbital plane
View from above satellite
View from above satellite

Ground track
Ground track

The orbit data is extracted from the following two-line orbital elements,

1    58U 60013A   20301.85712348  .00000101  00000-0  27189-4 0  9990
2    58  28.3255 142.9098 0164934  85.4676 276.4689 13.46323773957008
Epoch (UTC): 27 October 2020 20:34:15
Eccentricity: 0.0164934
inclination: 28.3255°
perigee height: 963 km
apogee height: 1209 km
right ascension of ascending node: 142.9098°
argument of perigee: 85.4676°
revolutions per day: 13.46323773
mean anomaly at epoch: 276.4689°
orbit number at epoch: 95700

The dashed part of the orbit path shows where the satellite is in the earth's shadow,  

DLR